Weather History for KAWG - March, 2014

Change the Weather History Date:

Sunday, March 9, 2014

  Actual Average Record
Temperature  
Mean Temperature 36 °F -  
Max Temperature 50 °F 40 °F 64 °F (2002)
Min Temperature 23 °F 24 °F 1 °F (2003)
Degree Days  
Heating Degree Days 28    
Moisture  
Dew Point 30 °F    
Average Humidity 77    
Maximum Humidity 100    
Minimum Humidity 54    
Precipitation  
Precipitation 0.00 in - - ()
Sea Level Pressure  
Sea Level Pressure 30.06 in    
Wind  
Wind Speed 9 mph (SW)    
Max Wind Speed 22 mph    
Max Gust Speed 25 mph    
Visibility 9 miles    
Events      
Averages and records for this station are not official NWS values.
T = Trace of Precipitation, MM = Missing Value Source: NWS Daily Summary

Daily Weather History Graph

Daily Weather History Graph

Search for Another Location

Airport or City:

Trip Planner

Search our weather history database for the weather conditions in past years. The results will help you decide how hot, cold, wet, or windy it might be!

Date:

Astronomy

Mar. 09, 2014 Rise Set
Actual Time 7:28 AM CDT 7:06 PM CDT
Civil Twilight 7:00 AM CDT 7:34 PM CDT
Nautical Twilight 6:28 AM CDT 8:06 PM CDT
Astronomical Twilight 5:56 AM CDT 8:38 PM CDT
Moon 12:57 PM CDT (3/9) 3:56 AM CDT (3/9)
Length of Visible Light 12h 33m
Length of Day
11h 38m
First Quarter, 61% of the Moon is Illuminated
Mar 9
First Quarter
Mar 16
Full
Mar 23
Last Quarter
Mar 30
New
Apr 7
First Quarter

Hourly Weather History & Observations

Time (CDT) Temp. Windchill Dew Point Humidity Pressure Visibility Wind Dir Wind Speed Gust Speed Precip Events Conditions
12:15 AM 24.8 °F - 23.0 °F 93% 30.29 in 10.0 mi Calm Calm - N/A   Clear
12:35 AM 24.8 °F - 23.0 °F 93% 30.29 in 10.0 mi Calm Calm - N/A   Clear
12:55 AM 24.8 °F - 23.0 °F 93% 30.29 in 9.0 mi Calm Calm - N/A   Clear
1:15 AM 24.8 °F 20.5 °F 23.0 °F 93% 30.30 in 9.0 mi WSW 3.5 mph - N/A   Clear
1:35 AM 23.0 °F 18.4 °F 23.0 °F 100% 30.29 in 7.0 mi WSW 3.5 mph - N/A   Clear
1:55 AM 24.8 °F - 23.0 °F 93% 30.28 in 8.0 mi Calm Calm - N/A   Clear
3:15 AM 24.8 °F 20.5 °F 23.0 °F 93% 30.27 in 7.0 mi WSW 3.5 mph - N/A   Clear
3:35 AM 23.0 °F 17.0 °F 23.0 °F 100% 30.27 in 6.0 mi WSW 4.6 mph - N/A   Clear
3:55 AM 23.0 °F 17.0 °F 23.0 °F 100% 30.26 in 6.0 mi WSW 4.6 mph - N/A   Clear
4:15 AM 23.0 °F 15.8 °F 23.0 °F 100% 30.26 in 5.0 mi WSW 5.8 mph - N/A   Clear
4:35 AM 23.0 °F 17.0 °F 23.0 °F 100% 30.25 in 5.0 mi SW 4.6 mph - N/A   Clear
4:55 AM 24.8 °F 17.9 °F 23.0 °F 93% 30.24 in 6.0 mi SSW 5.8 mph - N/A   Clear
5:15 AM 23.0 °F 15.8 °F 23.0 °F 100% 30.24 in 6.0 mi SW 5.8 mph - N/A   Clear
5:35 AM 24.8 °F 16.9 °F 23.0 °F 93% 30.24 in 6.0 mi SW 6.9 mph - N/A   Clear
5:50 AM 24.8 °F 17.9 °F 23.0 °F 93% 30.24 in 6.0 mi SSW 5.8 mph - N/A   Clear
6:15 AM 23.0 °F 15.8 °F 23.0 °F 100% 30.24 in 6.0 mi SSW 5.8 mph - N/A   Clear
6:35 AM 23.0 °F 14.7 °F 23.0 °F 100% 30.24 in 6.0 mi SSW 6.9 mph - N/A   Clear
6:55 AM 23.0 °F 15.8 °F 23.0 °F 100% 30.24 in 6.0 mi SSW 5.8 mph - N/A   Clear
7:15 AM 23.0 °F 14.7 °F 23.0 °F 100% 30.24 in 6.0 mi SSW 6.9 mph - N/A   Clear
7:35 AM 23.0 °F 14.7 °F 23.0 °F 100% 30.24 in 4.0 mi SSW 6.9 mph - N/A   Clear
7:55 AM 23.0 °F 15.8 °F 23.0 °F 100% 30.22 in 3.0 mi South 5.8 mph - N/A   Clear
8:15 AM 24.8 °F 15.3 °F 24.8 °F 100% 30.21 in 4.0 mi SSW 9.2 mph - N/A   Clear
8:35 AM 26.6 °F 17.5 °F 24.8 °F 93% 30.22 in 5.0 mi SSW 9.2 mph - N/A   Clear
8:55 AM 28.4 °F 19.7 °F 26.6 °F 93% 30.22 in 6.0 mi SSW 9.2 mph - N/A   Clear
9:15 AM 28.4 °F 18.0 °F 26.6 °F 93% 30.21 in 8.0 mi SSW 12.7 mph - N/A   Clear
9:35 AM 30.2 °F 20.2 °F 26.6 °F 86% 30.19 in 8.0 mi SSW 12.7 mph 18.4 mph N/A   Clear
9:55 AM 32.0 °F 22.1 °F 28.4 °F 87% 30.19 in 9.0 mi SSW 13.8 mph - N/A   Clear
10:15 AM 33.8 °F 23.2 °F 28.4 °F 81% 30.17 in - SSW 17.3 mph - N/A   Clear
10:30 AM 33.8 °F 23.9 °F 28.4 °F 81% 30.16 in 10.0 mi SSW 15.0 mph 21.9 mph N/A   Clear
10:55 AM 35.6 °F 27.1 °F 28.4 °F 75% 30.16 in 10.0 mi SW 12.7 mph - N/A   Clear
11:15 AM 37.4 °F 27.8 °F 28.4 °F 70% 30.14 in 10.0 mi SSW 17.3 mph - N/A   Clear
11:35 AM 39.2 °F 30.5 °F 28.4 °F 65% 30.13 in 10.0 mi SSW 16.1 mph 21.9 mph N/A   Clear
11:55 AM 39.2 °F 30.2 °F 30.2 °F 70% 30.12 in 10.0 mi SSW 17.3 mph - N/A   Clear
12:15 PM 41.0 °F 33.9 °F 30.2 °F 65% 30.12 in 10.0 mi SW 12.7 mph 20.7 mph N/A   Clear
12:35 PM 41.0 °F 32.5 °F 30.2 °F 65% 30.10 in 10.0 mi SSW 17.3 mph 23.0 mph N/A   Clear
12:55 PM 42.8 °F 34.8 °F 30.2 °F 61% 30.09 in 10.0 mi SSW 17.3 mph 23.0 mph N/A   Clear
1:15 PM 42.8 °F 34.5 °F 30.2 °F 61% 30.07 in 10.0 mi SW 18.4 mph 24.2 mph N/A   Clear
1:35 PM 44.6 °F 37.2 °F 32.0 °F 61% 30.05 in 10.0 mi SSW 17.3 mph 25.3 mph N/A   Clear
1:55 PM 44.6 °F 36.9 °F 32.0 °F 61% 30.04 in 10.0 mi SSW 18.4 mph 24.2 mph N/A   Clear
2:15 PM 46.4 °F 38.5 °F 32.0 °F 57% 30.02 in 10.0 mi SSW 21.9 mph - N/A   Clear
2:35 PM 46.4 °F 39.5 °F 32.0 °F 57% 30.00 in 10.0 mi SSW 17.3 mph 25.3 mph N/A   Clear
2:55 PM 46.4 °F 39.0 °F 32.0 °F 57% 29.98 in 10.0 mi SSW 19.6 mph - N/A   Clear
3:15 PM 46.4 °F 38.7 °F 33.8 °F 62% 29.97 in 10.0 mi SSW 20.7 mph - N/A   Clear
3:35 PM 48.2 °F - 32.0 °F 54% 29.95 in 10.0 mi SSW 21.9 mph - N/A   Clear
3:55 PM 48.2 °F - 33.8 °F 58% 29.95 in 10.0 mi SSW 19.6 mph - N/A   Clear
4:15 PM 50.0 °F - 33.8 °F 54% 29.94 in 10.0 mi SSW 17.3 mph - N/A   Clear
4:35 PM 50.0 °F - 33.8 °F 54% 29.92 in 10.0 mi SSW 20.7 mph - N/A   Clear
4:55 PM 50.0 °F - 33.8 °F 54% 29.91 in 10.0 mi SSW 16.1 mph 25.3 mph N/A   Clear
5:15 PM 50.0 °F - 35.6 °F 58% 29.90 in 10.0 mi SSW 19.6 mph - N/A   Clear
5:35 PM 50.0 °F - 35.6 °F 58% 29.90 in 10.0 mi SW 15.0 mph 24.2 mph N/A   Clear
5:55 PM 50.0 °F - 35.6 °F 58% 29.89 in 10.0 mi SSW 13.8 mph 24.2 mph N/A   Clear
6:15 PM 48.2 °F - 35.6 °F 62% 29.88 in 10.0 mi SSW 17.3 mph - N/A   Clear
6:35 PM 48.2 °F - 35.6 °F 62% 29.88 in 10.0 mi SSW 13.8 mph - N/A   Clear
6:55 PM 46.4 °F 40.4 °F 35.6 °F 66% 29.88 in 10.0 mi SSW 13.8 mph - N/A   Clear
7:15 PM 44.6 °F 37.8 °F 35.6 °F 71% 29.88 in 10.0 mi SSW 15.0 mph - N/A   Clear
7:35 PM 44.6 °F 38.1 °F 35.6 °F 71% 29.87 in 10.0 mi SSW 13.8 mph - N/A   Clear
7:55 PM 44.6 °F 38.1 °F 33.8 °F 66% 29.87 in 10.0 mi SSW 13.8 mph - N/A   Clear
8:15 PM 44.6 °F 38.1 °F 35.6 °F 71% 29.86 in 10.0 mi SSW 13.8 mph - N/A   Clear
8:35 PM 42.8 °F 35.8 °F 35.6 °F 76% 29.86 in 10.0 mi SSW 13.8 mph - N/A   Clear
8:55 PM 44.6 °F 38.1 °F 35.6 °F 71% 29.85 in 10.0 mi SSW 13.8 mph - N/A   Clear
9:15 PM 44.6 °F 38.1 °F 35.6 °F 71% 29.85 in 10.0 mi SSW 13.8 mph - N/A   Clear
9:35 PM 44.6 °F 37.8 °F 35.6 °F 71% 29.84 in 10.0 mi SSW 15.0 mph - N/A   Clear
9:55 PM 44.6 °F 38.1 °F 35.6 °F 71% 29.84 in 10.0 mi SSW 13.8 mph - N/A   Clear
10:15 PM 44.6 °F 38.1 °F 33.8 °F 66% 29.83 in 10.0 mi SSW 13.8 mph - N/A   Clear
10:35 PM 44.6 °F 37.2 °F 33.8 °F 66% 29.83 in 10.0 mi SSW 17.3 mph - N/A   Clear
10:55 PM 44.6 °F 37.8 °F 33.8 °F 66% 29.83 in 10.0 mi SSW 15.0 mph - N/A   Clear
11:15 PM 44.6 °F 38.4 °F 33.8 °F 66% 29.83 in 10.0 mi SW 12.7 mph - N/A   Clear
11:30 PM 44.6 °F 38.4 °F 33.8 °F 66% 29.83 in 10.0 mi SW 12.7 mph - N/A   Clear
11:55 PM 44.6 °F 37.8 °F 33.8 °F 66% 29.82 in 10.0 mi SW 15.0 mph 20.7 mph N/A   Clear
12:15 AM 44.6 °F 38.1 °F 33.8 °F 66% 29.82 in 10.0 mi SW 13.8 mph - N/A   Clear
12:35 AM 44.6 °F 38.8 °F 33.8 °F 66% 29.81 in 10.0 mi SW 11.5 mph - N/A   Clear
12:55 AM 44.6 °F 38.8 °F 33.8 °F 66% 29.81 in 10.0 mi SW 11.5 mph - N/A   Clear